Time,TemperatureF,DewpointF,PressureIn,WindDirection,WindDirectionDegrees,WindSpeedMPH,WindSpeedGustMPH,Humidity,HourlyPrecipIn,Conditions,Clouds,dailyrainin,SolarRadiationWatts/m^2,SoftwareType,DateUTC
2013-08-19 00:00:00,63.9,63.0,30.24,South,184,0.0,1.0,97,0.34,,---,0.62,0.00,VWS V14.01,2013-08-19 04:00:00,
2013-08-19 00:01:00,64.0,63.1,30.24,South,184,0.0,1.0,97,0.34,,---,0.62,0.00,VWS V14.01,2013-08-19 04:01:00,
2013-08-19 00:02:00,63.9,63.0,30.24,South,184,0.0,1.0,97,0.34,,---,0.62,0.00,VWS V14.01,2013-08-19 04:02:00,
2013-08-19 00:07:00,63.9,63.0,30.24,South,184,0.0,0.0,97,0.26,,---,0.01,0.00,VWS V14.01,2013-08-19 04:07:00,
2013-08-19 00:12:00,63.9,63.0,30.24,South,184,0.0,1.0,97,0.27,,---,0.02,0.00,VWS V14.01,2013-08-19 04:12:00,
2013-08-19 00:17:00,63.9,63.0,30.24,South,184,0.0,1.0,97,0.27,,---,0.02,0.00,VWS V14.01,2013-08-19 04:17:00,
2013-08-19 00:22:00,63.9,63.0,30.23,South,184,0.0,1.0,97,0.27,,---,0.02,0.00,VWS V14.01,2013-08-19 04:22:00,
2013-08-19 00:27:00,63.8,62.9,30.23,SE,144,0.0,1.0,97,0.28,,---,0.03,0.00,VWS V14.01,2013-08-19 04:27:00,
2013-08-19 00:30:00,63.8,62.9,30.23,SE,144,0.0,1.0,97,0.28,,---,0.03,0.00,VWS V14.01,2013-08-19 04:30:00,
2013-08-19 00:32:00,63.8,62.9,30.23,SE,144,0.0,1.0,97,0.28,,---,0.03,0.00,VWS V14.01,2013-08-19 04:32:00,
2013-08-19 00:38:00,63.8,62.9,30.24,SE,144,0.0,0.0,97,0.19,,---,0.03,0.00,VWS V14.01,2013-08-19 04:38:00,
2013-08-19 00:43:00,63.8,62.9,30.23,SE,124,0.0,0.0,97,0.19,,---,0.03,0.00,VWS V14.01,2013-08-19 04:43:00,
2013-08-19 00:48:00,63.7,62.8,30.23,West,269,0.0,1.0,97,0.19,,---,0.03,0.00,VWS V14.01,2013-08-19 04:48:00,
2013-08-19 00:53:00,63.6,62.7,30.23,West,269,0.0,1.0,97,0.20,,---,0.04,0.00,VWS V14.01,2013-08-19 04:53:00,
2013-08-19 00:58:00,63.7,62.8,30.22,West,269,0.0,1.0,97,0.20,,---,0.04,0.00,VWS V14.01,2013-08-19 04:58:00,
2013-08-19 01:00:00,63.6,62.7,30.23,WSW,238,0.0,1.0,97,0.20,,---,0.04,0.00,VWS V14.01,2013-08-19 05:00:00,
2013-08-19 01:03:00,63.6,62.7,30.23,WSW,238,0.0,1.0,97,0.20,,---,0.04,0.00,VWS V14.01,2013-08-19 05:03:00,
2013-08-19 01:08:00,63.6,62.7,30.23,WSW,238,0.0,0.0,97,0.04,,---,0.04,0.00,VWS V14.01,2013-08-19 05:08:00,
2013-08-19 01:13:00,63.6,62.7,30.23,WSW,238,0.0,0.0,97,0.05,,---,0.05,0.00,VWS V14.01,2013-08-19 05:13:00,
2013-08-19 01:18:00,63.5,62.6,30.22,WSW,238,0.0,0.0,97,0.05,,---,0.05,0.00,VWS V14.01,2013-08-19 05:18:00,
2013-08-19 01:23:00,63.5,62.6,30.22,WSW,238,0.0,0.0,97,0.05,,---,0.05,0.00,VWS V14.01,2013-08-19 05:23:00,
2013-08-19 01:28:00,63.5,62.6,30.22,WSW,238,0.0,0.0,97,0.05,,---,0.05,0.00,VWS V14.01,2013-08-19 05:28:00,
2013-08-19 01:30:00,63.5,62.6,30.22,WSW,238,0.0,0.0,97,0.05,,---,0.05,0.00,VWS V14.01,2013-08-19 05:30:00,
2013-08-19 01:33:00,63.5,62.6,30.22,WSW,238,0.0,0.0,97,0.05,,---,0.05,0.00,VWS V14.01,2013-08-19 05:33:00,
2013-08-19 01:38:00,63.5,62.6,30.22,WSW,238,0.0,0.0,97,0.03,,---,0.06,0.00,VWS V14.01,2013-08-19 05:38:00,
2013-08-19 01:44:00,63.6,62.7,30.22,WSW,238,0.0,0.0,97,0.03,,---,0.06,0.00,VWS V14.01,2013-08-19 05:44:00,
2013-08-19 01:49:00,63.6,62.7,30.22,WSW,238,0.0,0.0,97,0.03,,---,0.06,0.00,VWS V14.01,2013-08-19 05:49:00,
2013-08-19 01:54:00,63.6,62.7,30.22,WSW,238,0.0,0.0,97,0.03,,---,0.06,0.00,VWS V14.01,2013-08-19 05:54:00,
2013-08-19 01:59:00,63.6,62.7,30.22,WSW,238,0.0,0.0,97,0.03,,---,0.06,0.00,VWS V14.01,2013-08-19 05:59:00,
2013-08-19 02:00:00,63.6,62.7,30.22,WSW,238,0.0,0.0,97,0.04,,---,0.07,0.00,VWS V14.01,2013-08-19 06:00:00,
2013-08-19 02:04:00,63.6,62.7,30.22,WSW,238,0.0,0.0,97,0.03,,---,0.07,0.00,VWS V14.01,2013-08-19 06:04:00,
2013-08-19 02:09:00,63.6,62.7,30.22,WSW,238,0.0,0.0,97,0.03,,---,0.07,0.00,VWS V14.01,2013-08-19 06:09:00,
2013-08-19 02:14:00,63.6,62.7,30.22,WSW,238,0.0,0.0,97,0.04,,---,0.08,0.00,VWS V14.01,2013-08-19 06:14:00,
2013-08-19 02:19:00,63.6,62.7,30.22,WSW,238,0.0,0.0,97,0.04,,---,0.08,0.00,VWS V14.01,2013-08-19 06:19:00,
2013-08-19 02:24:00,63.6,62.7,30.22,WSW,238,0.0,0.0,97,0.05,,---,0.09,0.00,VWS V14.01,2013-08-19 06:24:00,
2013-08-19 02:29:00,63.6,62.7,30.22,West,271,0.0,0.0,97,0.05,,---,0.09,0.00,VWS V14.01,2013-08-19 06:29:00,
2013-08-19 02:30:00,63.6,62.7,30.22,West,271,0.0,0.0,97,0.06,,---,0.10,0.00,VWS V14.01,2013-08-19 06:30:00,
2013-08-19 02:34:00,63.6,62.7,30.21,West,271,0.0,0.0,97,0.05,,---,0.10,0.00,VWS V14.01,2013-08-19 06:34:00,
2013-08-19 02:39:00,63.6,62.7,30.21,East,101,0.0,0.0,97,0.05,,---,0.10,0.00,VWS V14.01,2013-08-19 06:39:00,
2013-08-19 02:44:00,63.6,62.7,30.21,East,101,0.0,0.0,97,0.06,,---,0.11,0.00,VWS V14.01,2013-08-19 06:44:00,
2013-08-19 02:49:00,63.6,62.7,30.21,East,101,0.0,0.0,97,0.06,,---,0.11,0.00,VWS V14.01,2013-08-19 06:49:00,
2013-08-19 02:54:00,63.6,62.7,30.21,East,101,0.0,0.0,97,0.06,,---,0.11,0.00,VWS V14.01,2013-08-19 06:54:00,
2013-08-19 02:59:00,63.6,62.7,30.21,East,101,0.0,0.0,97,0.07,,---,0.12,0.00,VWS V14.01,2013-08-19 06:59:00,
2013-08-19 03:00:00,63.7,62.8,30.21,East,101,0.0,0.0,97,0.07,,---,0.12,0.00,VWS V14.01,2013-08-19 07:00:00,
2013-08-19 03:05:00,63.6,62.7,30.21,East,101,0.0,0.0,97,0.05,,---,0.12,0.00,VWS V14.01,2013-08-19 07:05:00,
2013-08-19 03:10:00,63.6,62.7,30.20,East,101,0.0,0.0,97,0.06,,---,0.13,0.00,VWS V14.01,2013-08-19 07:10:00,
2013-08-19 03:15:00,63.6,62.7,30.20,SW,218,0.0,1.0,97,0.06,,---,0.13,0.00,VWS V14.01,2013-08-19 07:15:00,
2013-08-19 03:20:00,63.6,62.7,30.19,SW,218,0.0,1.0,97,0.07,,---,0.14,0.00,VWS V14.01,2013-08-19 07:20:00,
2013-08-19 03:25:00,63.6,62.7,30.19,SW,218,0.0,1.0,97,0.07,,---,0.14,0.00,VWS V14.01,2013-08-19 07:25:00,
2013-08-19 03:30:00,63.5,62.6,30.19,SW,218,0.0,1.0,97,0.08,,---,0.15,0.00,VWS V14.01,2013-08-19 07:30:00,
2013-08-19 03:35:00,63.5,62.6,30.19,SW,218,0.0,0.0,97,0.05,,---,0.15,0.00,VWS V14.01,2013-08-19 07:35:00,
2013-08-19 03:40:00,63.5,62.6,30.19,SW,218,0.0,0.0,97,0.06,,---,0.16,0.00,VWS V14.01,2013-08-19 07:40:00,
2013-08-19 03:45:00,63.5,62.6,30.19,SSW,213,0.0,0.0,97,0.06,,---,0.16,0.00,VWS V14.01,2013-08-19 07:45:00,
2013-08-19 03:50:00,63.5,62.6,30.20,SSW,213,0.0,0.0,97,0.06,,---,0.16,0.00,VWS V14.01,2013-08-19 07:50:00,
2013-08-19 03:55:00,63.5,62.6,30.20,SSW,213,0.0,0.0,97,0.06,,---,0.16,0.00,VWS V14.01,2013-08-19 07:55:00,
2013-08-19 04:00:00,63.5,62.6,30.20,SSW,213,0.0,0.0,97,0.07,,---,0.17,0.00,VWS V14.01,2013-08-19 08:00:00,
2013-08-19 04:05:00,63.5,62.6,30.20,SSW,213,0.0,0.0,97,0.05,,---,0.17,0.00,VWS V14.01,2013-08-19 08:05:00,
2013-08-19 04:10:00,63.5,62.6,30.20,SSW,213,0.0,0.0,97,0.06,,---,0.18,0.00,VWS V14.01,2013-08-19 08:10:00,
2013-08-19 04:16:00,63.5,62.6,30.20,SSW,213,0.0,0.0,97,0.06,,---,0.18,0.00,VWS V14.01,2013-08-19 08:16:00,
2013-08-19 04:21:00,63.5,62.6,30.20,SSW,212,0.0,0.0,97,0.07,,---,0.19,0.00,VWS V14.01,2013-08-19 08:21:00,
2013-08-19 04:26:00,63.5,62.6,30.20,SSW,212,0.0,0.0,97,0.07,,---,0.19,0.00,VWS V14.01,2013-08-19 08:26:00,
2013-08-19 04:30:00,63.5,62.6,30.19,SSW,194,0.0,0.0,97,0.08,,---,0.20,0.00,VWS V14.01,2013-08-19 08:30:00,
2013-08-19 04:31:00,63.5,62.6,30.19,SSW,194,0.0,0.0,97,0.08,,---,0.20,0.00,VWS V14.01,2013-08-19 08:31:00,
2013-08-19 04:36:00,63.5,62.6,30.19,SSW,194,0.0,0.0,97,0.05,,---,0.20,0.00,VWS V14.01,2013-08-19 08:36:00,
2013-08-19 04:41:00,63.4,62.5,30.20,SSW,194,0.0,0.0,97,0.05,,---,0.20,0.00,VWS V14.01,2013-08-19 08:41:00,
2013-08-19 04:46:00,63.4,62.5,30.19,SSW,194,0.0,0.0,97,0.05,,---,0.20,0.00,VWS V14.01,2013-08-19 08:46:00,
2013-08-19 04:51:00,63.4,62.5,30.19,SSW,194,0.0,0.0,97,0.05,,---,0.20,0.00,VWS V14.01,2013-08-19 08:51:00,
2013-08-19 04:56:00,63.4,62.8,30.19,East,97,0.0,0.0,98,0.05,,---,0.20,0.00,VWS V14.01,2013-08-19 08:56:00,
2013-08-19 05:00:00,63.4,62.8,30.19,East,97,0.0,0.0,98,0.06,,---,0.21,0.00,VWS V14.01,2013-08-19 09:00:00,
2013-08-19 05:01:00,63.4,62.8,30.19,East,97,0.0,0.0,98,0.06,,---,0.21,0.00,VWS V14.01,2013-08-19 09:01:00,
2013-08-19 05:06:00,63.4,62.8,30.20,SSE,153,0.0,2.0,98,0.04,,---,0.21,0.00,VWS V14.01,2013-08-19 09:06:00,
2013-08-19 05:11:00,63.4,62.8,30.20,NE,42,0.0,2.0,98,0.04,,---,0.21,0.00,VWS V14.01,2013-08-19 09:11:00,
2013-08-19 05:17:00,63.4,62.8,30.20,SE,136,0.0,2.0,98,0.04,,---,0.21,0.00,VWS V14.01,2013-08-19 09:17:00,
2013-08-19 05:22:00,63.4,62.8,30.20,East,90,0.0,2.0,98,0.04,,---,0.21,0.00,VWS V14.01,2013-08-19 09:22:00,
2013-08-19 05:27:00,63.3,62.7,30.20,SSW,207,0.0,3.0,98,0.04,,---,0.21,0.00,VWS V14.01,2013-08-19 09:27:00,
2013-08-19 05:30:00,63.3,62.7,30.20,ESE,104,0.0,3.0,98,0.04,,---,0.21,0.00,VWS V14.01,2013-08-19 09:30:00,
2013-08-19 05:32:00,63.3,62.7,30.20,ESE,104,0.0,3.0,98,0.04,,---,0.21,0.00,VWS V14.01,2013-08-19 09:32:00,
2013-08-19 05:37:00,63.3,62.4,30.20,ESE,104,0.0,0.0,97,0.02,,---,0.22,0.00,VWS V14.01,2013-08-19 09:37:00,
2013-08-19 05:42:00,63.2,62.3,30.20,South,191,0.0,2.0,97,0.02,,---,0.22,0.00,VWS V14.01,2013-08-19 09:42:00,
2013-08-19 05:47:00,63.2,62.3,30.19,South,191,0.0,2.0,97,0.02,,---,0.22,0.00,VWS V14.01,2013-08-19 09:47:00,
2013-08-19 05:52:00,63.2,62.3,30.19,WSW,240,0.0,2.0,97,0.03,,---,0.23,0.00,VWS V14.01,2013-08-19 09:52:00,
2013-08-19 05:57:00,63.2,62.3,30.19,ENE,65,0.0,2.0,97,0.03,,---,0.23,0.00,VWS V14.01,2013-08-19 09:57:00,
2013-08-19 06:00:00,63.1,62.2,30.19,East,88,0.0,2.0,97,0.04,,---,0.24,0.00,VWS V14.01,2013-08-19 10:00:00,
2013-08-19 06:02:00,63.1,62.2,30.19,East,88,0.0,2.0,97,0.04,,---,0.24,0.00,VWS V14.01,2013-08-19 10:02:00,
2013-08-19 06:07:00,63.1,62.2,30.19,SSW,195,0.0,3.0,97,0.04,,---,0.25,0.00,VWS V14.01,2013-08-19 10:07:00,
2013-08-19 06:12:00,63.1,62.2,30.19,SSW,195,0.0,3.0,97,0.04,,---,0.25,0.00,VWS V14.01,2013-08-19 10:12:00,
2013-08-19 06:17:00,63.1,62.2,30.19,ENE,65,0.0,3.0,97,0.04,,---,0.25,0.00,VWS V14.01,2013-08-19 10:17:00,
2013-08-19 06:23:00,63.1,62.2,30.20,SE,136,0.0,3.0,97,0.05,,---,0.26,0.00,VWS V14.01,2013-08-19 10:23:00,
2013-08-19 06:28:00,63.1,62.5,30.20,SE,124,0.0,3.0,98,0.05,,---,0.26,0.00,VWS V14.01,2013-08-19 10:28:00,
2013-08-19 06:30:00,63.1,62.5,30.19,SE,124,0.0,3.0,98,0.05,,---,0.26,0.00,VWS V14.01,2013-08-19 10:30:00,
2013-08-19 06:33:00,63.1,62.5,30.19,SE,124,0.0,3.0,98,0.05,,---,0.26,0.00,VWS V14.01,2013-08-19 10:33:00,
2013-08-19 06:38:00,63.1,62.5,30.19,East,96,0.0,2.0,98,0.05,,---,0.26,0.00,VWS V14.01,2013-08-19 10:38:00,
2013-08-19 06:43:00,63.1,62.5,30.19,East,96,0.0,2.0,98,0.06,,---,0.27,0.00,VWS V14.01,2013-08-19 10:43:00,
2013-08-19 06:48:00,63.1,62.5,30.19,East,96,0.0,2.0,98,0.06,,---,0.27,0.00,VWS V14.01,2013-08-19 10:48:00,
2013-08-19 06:53:00,63.1,62.5,30.19,ENE,67,0.0,3.0,98,0.06,,---,0.27,0.00,VWS V14.01,2013-08-19 10:53:00,
2013-08-19 06:58:00,63.0,62.4,30.19,SW,221,0.0,3.0,98,0.06,,---,0.27,0.00,VWS V14.01,2013-08-19 10:58:00,
2013-08-19 07:00:00,63.0,62.4,30.19,WSW,238,0.0,3.0,98,0.06,,---,0.27,0.00,VWS V14.01,2013-08-19 11:00:00,
2013-08-19 07:03:00,63.0,62.4,30.19,WSW,238,0.0,3.0,98,0.06,,---,0.27,0.00,VWS V14.01,2013-08-19 11:03:00,
2013-08-19 07:08:00,63.0,62.4,30.19,WSW,238,0.0,0.0,98,0.03,,---,0.27,0.00,VWS V14.01,2013-08-19 11:08:00,
2013-08-19 07:13:00,63.0,62.4,30.19,WSW,238,0.0,0.0,98,0.03,,---,0.27,5.00,VWS V14.01,2013-08-19 11:13:00,
2013-08-19 07:18:00,63.0,62.4,30.19,WSW,238,0.0,0.0,98,0.03,,---,0.27,9.00,VWS V14.01,2013-08-19 11:18:00,
2013-08-19 07:23:00,62.9,62.3,30.18,WSW,238,0.0,0.0,98,0.03,,---,0.27,7.00,VWS V14.01,2013-08-19 11:23:00,
2013-08-19 07:28:00,62.9,62.3,30.18,WSW,238,0.0,0.0,98,0.03,,---,0.27,11.00,VWS V14.01,2013-08-19 11:28:00,
2013-08-19 07:30:00,62.9,62.3,30.19,WSW,238,0.0,0.0,98,0.03,,---,0.27,14.00,VWS V14.01,2013-08-19 11:30:00,
2013-08-19 07:33:00,62.9,62.3,30.19,WSW,238,0.0,0.0,98,0.01,,---,0.27,14.00,VWS V14.01,2013-08-19 11:33:00,
2013-08-19 07:39:00,62.9,62.3,30.19,NW,304,0.0,2.0,98,0.01,,---,0.27,18.00,VWS V14.01,2013-08-19 11:39:00,
2013-08-19 07:44:00,62.9,62.3,30.18,NW,304,0.0,2.0,98,0.01,,---,0.27,25.00,VWS V14.01,2013-08-19 11:44:00,
2013-08-19 07:49:00,62.9,62.3,30.18,NW,304,0.0,2.0,98,0.01,,---,0.27,26.00,VWS V14.01,2013-08-19 11:49:00,
2013-08-19 07:54:00,62.9,62.3,30.18,NW,304,0.0,2.0,98,0.01,,---,0.27,28.00,VWS V14.01,2013-08-19 11:54:00,
2013-08-19 07:59:00,63.0,62.4,30.17,NW,304,0.0,2.0,98,0.01,,---,0.27,28.00,VWS V14.01,2013-08-19 11:59:00,
2013-08-19 08:00:00,63.0,62.4,30.18,NW,304,0.0,2.0,98,0.01,,---,0.27,33.00,VWS V14.01,2013-08-19 12:00:00,
2013-08-19 08:04:00,63.0,62.4,30.18,NW,304,0.0,0.0,98,0.00,,---,0.27,33.00,VWS V14.01,2013-08-19 12:04:00,
2013-08-19 08:09:00,63.0,62.4,30.18,NW,304,0.0,2.0,98,0.00,,---,0.27,37.00,VWS V14.01,2013-08-19 12:09:00,
2013-08-19 08:14:00,63.0,62.4,30.19,NW,304,0.0,2.0,98,0.00,,---,0.27,49.00,VWS V14.01,2013-08-19 12:14:00,
2013-08-19 08:19:00,63.0,62.4,30.18,NW,304,0.0,2.0,98,0.00,,---,0.27,46.00,VWS V14.01,2013-08-19 12:19:00,
2013-08-19 08:24:00,63.1,62.5,30.18,NW,304,0.0,2.0,98,0.00,,---,0.27,51.00,VWS V14.01,2013-08-19 12:24:00,
2013-08-19 08:29:00,63.1,62.5,30.17,NW,304,0.0,2.0,98,0.00,,---,0.27,63.00,VWS V14.01,2013-08-19 12:29:00,
2013-08-19 08:30:00,63.2,62.6,30.18,NW,306,0.0,2.0,98,0.00,,---,0.27,72.00,VWS V14.01,2013-08-19 12:30:00,
2013-08-19 08:34:00,63.2,62.6,30.18,NW,306,0.0,0.0,98,0.00,,---,0.27,79.00,VWS V14.01,2013-08-19 12:34:00,
2013-08-19 08:39:00,63.3,62.7,30.18,NW,306,0.0,1.0,98,0.00,,---,0.27,97.00,VWS V14.01,2013-08-19 12:39:00,
2013-08-19 08:45:00,63.3,62.7,30.18,NW,306,0.0,1.0,98,0.00,,---,0.27,104.00,VWS V14.01,2013-08-19 12:45:00,
2013-08-19 08:50:00,63.4,62.8,30.18,NW,306,0.0,1.0,98,0.00,,---,0.27,113.00,VWS V14.01,2013-08-19 12:50:00,
2013-08-19 08:55:00,63.5,62.9,30.18,NW,306,0.0,1.0,98,0.00,,---,0.27,98.00,VWS V14.01,2013-08-19 12:55:00,
2013-08-19 09:00:00,63.6,63.0,30.18,NW,306,0.0,1.0,98,0.00,,---,0.27,116.00,VWS V14.01,2013-08-19 13:00:00,
2013-08-19 09:05:00,63.8,63.2,30.18,NW,306,0.0,0.0,98,0.00,,---,0.27,118.00,VWS V14.01,2013-08-19 13:05:00,
2013-08-19 09:10:00,63.8,63.2,30.19,NW,306,0.0,0.0,98,0.00,,---,0.27,100.00,VWS V14.01,2013-08-19 13:10:00,
2013-08-19 09:15:00,63.9,63.3,30.18,NW,306,0.0,0.0,98,0.00,,---,0.27,111.00,VWS V14.01,2013-08-19 13:15:00,
2013-08-19 09:20:00,64.0,63.4,30.18,NW,306,0.0,0.0,98,0.00,,---,0.27,139.00,VWS V14.01,2013-08-19 13:20:00,
2013-08-19 09:25:00,64.0,63.4,30.17,NW,306,0.0,0.0,98,0.00,,---,0.27,149.00,VWS V14.01,2013-08-19 13:25:00,
2013-08-19 09:30:00,64.1,63.5,30.18,NW,306,0.0,0.0,98,0.00,,---,0.27,160.00,VWS V14.01,2013-08-19 13:30:00,
2013-08-19 09:35:00,64.3,63.7,30.18,NW,306,0.0,0.0,98,0.00,,---,0.27,121.00,VWS V14.01,2013-08-19 13:35:00,
2013-08-19 09:40:00,64.5,63.9,30.19,NW,306,0.0,0.0,98,0.00,,---,0.27,70.00,VWS V14.01,2013-08-19 13:40:00,
2013-08-19 09:46:00,64.5,63.9,30.19,NW,306,0.0,0.0,98,0.00,,---,0.27,65.00,VWS V14.01,2013-08-19 13:46:00,
2013-08-19 09:51:00,64.6,64.0,30.19,NW,306,0.0,0.0,98,0.00,,---,0.27,69.00,VWS V14.01,2013-08-19 13:51:00,
2013-08-19 09:56:00,64.6,64.0,30.18,NW,306,0.0,0.0,98,0.00,,---,0.27,93.00,VWS V14.01,2013-08-19 13:56:00,
2013-08-19 10:00:00,64.6,64.0,30.19,NW,305,0.0,0.0,98,0.00,,---,0.27,97.00,VWS V14.01,2013-08-19 14:00:00,
2013-08-19 10:01:00,64.6,64.0,30.18,NW,305,0.0,0.0,98,0.00,,---,0.27,102.00,VWS V14.01,2013-08-19 14:01:00,
2013-08-19 10:06:00,64.6,64.0,30.18,NW,306,0.0,0.0,98,0.00,,---,0.27,84.00,VWS V14.01,2013-08-19 14:06:00,
2013-08-19 10:11:00,64.7,64.1,30.18,NW,306,0.0,0.0,98,0.00,,---,0.27,60.00,VWS V14.01,2013-08-19 14:11:00,
2013-08-19 10:16:00,64.6,64.0,30.18,NW,306,0.0,0.0,98,0.00,,---,0.27,49.00,VWS V14.01,2013-08-19 14:16:00,
2013-08-19 10:21:00,64.6,64.0,30.19,NW,306,0.0,0.0,98,0.00,,---,0.27,56.00,VWS V14.01,2013-08-19 14:21:00,
2013-08-19 10:26:00,64.6,64.0,30.19,NW,306,0.0,0.0,98,0.00,,---,0.27,62.00,VWS V14.01,2013-08-19 14:26:00,
2013-08-19 10:30:00,64.5,63.9,30.19,NW,306,0.0,0.0,98,0.00,,---,0.27,67.00,VWS V14.01,2013-08-19 14:30:00,
2013-08-19 10:31:00,64.5,63.9,30.19,NW,306,0.0,0.0,98,0.00,,---,0.27,63.00,VWS V14.01,2013-08-19 14:31:00,
2013-08-19 10:36:00,64.5,63.9,30.19,NW,306,0.0,0.0,98,0.00,,---,0.27,76.00,VWS V14.01,2013-08-19 14:36:00,
2013-08-19 10:41:00,64.5,63.9,30.20,NW,306,0.0,1.0,98,0.00,,---,0.27,70.00,VWS V14.01,2013-08-19 14:41:00,
2013-08-19 10:47:00,64.6,64.0,30.20,NW,306,0.0,1.0,98,0.00,,---,0.27,83.00,VWS V14.01,2013-08-19 14:47:00,
2013-08-19 10:52:00,64.7,64.1,30.20,NW,306,0.0,1.0,98,0.00,,---,0.27,100.00,VWS V14.01,2013-08-19 14:52:00,
2013-08-19 10:57:00,64.7,64.1,30.20,NW,306,0.0,1.0,98,0.01,,---,0.28,118.00,VWS V14.01,2013-08-19 14:57:00,
2013-08-19 11:00:00,64.7,64.1,30.20,NW,306,0.0,1.0,98,0.01,,---,0.28,116.00,VWS V14.01,2013-08-19 15:00:00,
2013-08-19 11:02:00,64.7,64.1,30.19,NW,306,0.0,1.0,98,0.01,,---,0.28,132.00,VWS V14.01,2013-08-19 15:02:00,
2013-08-19 11:07:00,64.8,64.2,30.19,NW,306,0.0,0.0,98,0.01,,---,0.28,169.00,VWS V14.01,2013-08-19 15:07:00,
2013-08-19 11:12:00,64.9,64.3,30.19,NW,306,0.0,0.0,98,0.01,,---,0.28,171.00,VWS V14.01,2013-08-19 15:12:00,
2013-08-19 11:17:00,65.1,64.5,30.19,NW,306,2.0,2.0,98,0.01,,---,0.28,190.00,VWS V14.01,2013-08-19 15:17:00,
2013-08-19 11:22:00,65.2,64.6,30.20,NW,306,0.0,2.0,98,0.01,,---,0.28,192.00,VWS V14.01,2013-08-19 15:22:00,
2013-08-19 11:27:00,65.4,64.8,30.19,NW,306,0.0,2.0,98,0.01,,---,0.28,172.00,VWS V14.01,2013-08-19 15:27:00,
2013-08-19 11:30:00,65.4,64.8,30.20,NW,306,0.0,2.0,98,0.01,,---,0.28,144.00,VWS V14.01,2013-08-19 15:30:00,
2013-08-19 11:32:00,65.4,64.8,30.20,NW,306,0.0,2.0,98,0.01,,---,0.28,144.00,VWS V14.01,2013-08-19 15:32:00,
2013-08-19 11:37:00,65.5,64.9,30.19,NW,306,0.0,0.0,98,0.01,,---,0.28,183.00,VWS V14.01,2013-08-19 15:37:00,
2013-08-19 11:42:00,65.7,65.1,30.19,NW,306,0.0,0.0,98,0.01,,---,0.28,236.00,VWS V14.01,2013-08-19 15:42:00,
2013-08-19 11:47:00,66.0,65.4,30.20,NW,306,0.0,0.0,98,0.01,,---,0.28,213.00,VWS V14.01,2013-08-19 15:47:00,
2013-08-19 11:52:00,65.7,65.1,30.19,NW,306,0.0,0.0,98,0.01,,---,0.28,267.00,VWS V14.01,2013-08-19 15:52:00,
2013-08-19 11:57:00,66.0,65.4,30.19,NW,306,0.0,0.0,98,0.01,,---,0.28,304.00,VWS V14.01,2013-08-19 15:57:00,
2013-08-19 12:00:00,66.4,65.8,30.19,NW,306,0.0,0.0,98,0.01,,---,0.28,272.00,VWS V14.01,2013-08-19 16:00:00,
2013-08-19 12:02:00,66.4,65.8,30.20,NW,306,0.0,0.0,98,0.01,,---,0.28,272.00,VWS V14.01,2013-08-19 16:02:00,
2013-08-19 12:07:00,66.5,65.9,30.20,NW,306,0.0,0.0,98,0.00,,---,0.28,244.00,VWS V14.01,2013-08-19 16:07:00,
2013-08-19 12:12:00,66.5,65.9,30.20,NW,306,0.0,0.0,98,0.00,,---,0.28,341.00,VWS V14.01,2013-08-19 16:12:00,
2013-08-19 12:18:00,66.7,65.8,30.20,SSW,211,0.0,0.0,97,0.00,,---,0.28,209.00,VWS V14.01,2013-08-19 16:18:00,
2013-08-19 12:23:00,66.7,65.8,30.20,SSW,211,0.0,0.0,97,0.00,,---,0.28,172.00,VWS V14.01,2013-08-19 16:23:00,
2013-08-19 12:28:00,66.7,65.5,30.19,South,180,0.0,1.0,96,0.00,,---,0.28,250.00,VWS V14.01,2013-08-19 16:28:00,
2013-08-19 12:30:00,67.0,65.8,30.19,South,180,0.0,1.0,96,0.00,,---,0.28,274.00,VWS V14.01,2013-08-19 16:30:00,
2013-08-19 12:33:00,67.0,65.8,30.19,South,180,0.0,1.0,96,0.00,,---,0.28,274.00,VWS V14.01,2013-08-19 16:33:00,
2013-08-19 12:38:00,67.1,65.9,30.19,South,180,0.0,0.0,96,0.00,,---,0.28,178.00,VWS V14.01,2013-08-19 16:38:00,
2013-08-19 12:43:00,67.2,65.7,30.19,South,180,0.0,0.0,95,0.00,,---,0.28,151.00,VWS V14.01,2013-08-19 16:43:00,
2013-08-19 12:48:00,67.2,65.7,30.19,South,180,0.0,0.0,95,0.00,,---,0.28,127.00,VWS V14.01,2013-08-19 16:48:00,
2013-08-19 12:53:00,67.2,65.7,30.19,South,180,0.0,0.0,95,0.00,,---,0.28,113.00,VWS V14.01,2013-08-19 16:53:00,
2013-08-19 12:58:00,67.2,65.7,30.19,South,180,0.0,1.0,95,0.00,,---,0.28,109.00,VWS V14.01,2013-08-19 16:58:00,
2013-08-19 13:00:00,67.2,65.7,30.19,South,180,0.0,1.0,95,0.00,,---,0.28,102.00,VWS V14.01,2013-08-19 17:00:00,
2013-08-19 13:03:00,67.2,65.7,30.19,South,180,0.0,1.0,95,0.00,,---,0.28,102.00,VWS V14.01,2013-08-19 17:03:00,
2013-08-19 13:08:00,67.2,65.4,30.19,South,180,0.0,0.0,94,0.00,,---,0.28,111.00,VWS V14.01,2013-08-19 17:08:00,
2013-08-19 13:13:00,67.3,65.5,30.19,South,180,0.0,0.0,94,0.00,,---,0.28,167.00,VWS V14.01,2013-08-19 17:13:00,
2013-08-19 13:18:00,67.5,66.0,30.19,South,180,0.0,0.0,95,0.00,,---,0.28,269.00,VWS V14.01,2013-08-19 17:18:00,
2013-08-19 13:23:00,67.8,66.0,30.19,South,180,0.0,0.0,94,0.00,,---,0.28,311.00,VWS V14.01,2013-08-19 17:23:00,
2013-08-19 13:29:00,68.1,66.3,30.19,South,180,0.0,0.0,94,0.00,,---,0.28,385.00,VWS V14.01,2013-08-19 17:29:00,
2013-08-19 13:30:00,68.4,66.3,30.19,South,180,0.0,1.0,93,0.00,,---,0.28,485.00,VWS V14.01,2013-08-19 17:30:00,
2013-08-19 13:34:00,68.5,66.4,30.19,South,180,0.0,0.0,93,0.00,,---,0.28,517.00,VWS V14.01,2013-08-19 17:34:00,
2013-08-19 13:39:00,69.1,67.0,30.19,South,180,0.0,0.0,93,0.00,,---,0.28,418.00,VWS V14.01,2013-08-19 17:39:00,
2013-08-19 13:44:00,69.7,67.3,30.18,South,180,0.0,0.0,92,0.00,,---,0.28,482.00,VWS V14.01,2013-08-19 17:44:00,
2013-08-19 13:49:00,70.0,67.3,30.19,SSW,197,0.0,3.0,91,0.00,,---,0.28,190.00,VWS V14.01,2013-08-19 17:49:00,
2013-08-19 13:54:00,69.9,66.8,30.19,SE,134,0.0,6.0,90,0.00,,---,0.28,185.00,VWS V14.01,2013-08-19 17:54:00,
2013-08-19 13:59:00,69.8,66.7,30.19,ESE,105,0.0,7.0,90,0.00,,---,0.28,192.00,VWS V14.01,2013-08-19 17:59:00,
2013-08-19 14:00:00,69.5,66.1,30.19,East,92,0.0,7.0,89,0.00,,---,0.28,262.00,VWS V14.01,2013-08-19 18:00:00,
2013-08-19 14:04:00,69.4,66.0,30.19,East,91,0.0,0.0,89,0.00,,---,0.28,339.00,VWS V14.01,2013-08-19 18:04:00,
2013-08-19 14:09:00,69.2,66.5,30.18,ENE,61,0.0,2.0,91,0.00,,---,0.28,378.00,VWS V14.01,2013-08-19 18:09:00,
2013-08-19 14:14:00,69.0,65.9,30.18,SE,142,0.0,4.0,90,0.00,,---,0.28,376.00,VWS V14.01,2013-08-19 18:14:00,
2013-08-19 14:19:00,69.0,65.9,30.18,ENE,67,0.0,5.0,90,0.00,,---,0.28,299.00,VWS V14.01,2013-08-19 18:19:00,
2013-08-19 14:24:00,68.9,65.5,30.18,SW,216,0.0,5.0,89,0.00,,---,0.28,320.00,VWS V14.01,2013-08-19 18:24:00,
2013-08-19 14:29:00,69.0,65.9,30.18,SSE,159,0.0,5.0,90,0.00,,---,0.28,360.00,VWS V14.01,2013-08-19 18:29:00,
2013-08-19 14:30:00,69.3,66.2,30.18,WSW,237,0.0,5.0,90,0.00,,---,0.28,258.00,VWS V14.01,2013-08-19 18:30:00,
2013-08-19 14:34:00,69.3,66.2,30.18,West,267,0.0,1.0,90,0.00,,---,0.28,244.00,VWS V14.01,2013-08-19 18:34:00,
2013-08-19 14:39:00,69.5,65.8,30.18,ESE,107,0.0,3.0,88,0.00,,---,0.28,209.00,VWS V14.01,2013-08-19 18:39:00,
2013-08-19 14:44:00,69.5,66.1,30.18,WSW,237,0.0,3.0,89,0.00,,---,0.28,260.00,VWS V14.01,2013-08-19 18:44:00,
2013-08-19 14:50:00,69.5,66.1,30.18,South,171,0.0,3.0,89,0.00,,---,0.28,155.00,VWS V14.01,2013-08-19 18:50:00,
2013-08-19 14:55:00,69.4,66.0,30.17,ENE,78,0.0,3.0,89,0.00,,---,0.28,190.00,VWS V14.01,2013-08-19 18:55:00,
2013-08-19 15:00:00,69.2,66.2,30.18,ENE,77,0.0,3.0,90,0.01,,---,0.29,135.00,VWS V14.01,2013-08-19 19:00:00,
2013-08-19 15:05:00,69.0,65.9,30.17,ENE,78,0.0,2.0,90,0.01,,---,0.29,130.00,VWS V14.01,2013-08-19 19:05:00,
2013-08-19 15:10:00,68.9,65.8,30.18,SW,225,0.0,2.0,90,0.01,,---,0.29,134.00,VWS V14.01,2013-08-19 19:10:00,
2013-08-19 15:15:00,68.9,65.8,30.17,ESE,109,0.0,2.0,90,0.02,,---,0.30,135.00,VWS V14.01,2013-08-19 19:15:00,
2013-08-19 15:20:00,68.7,66.0,30.17,ESE,109,0.0,2.0,91,0.03,,---,0.31,107.00,VWS V14.01,2013-08-19 19:20:00,
2013-08-19 15:25:00,68.6,65.9,30.17,ESE,109,0.0,2.0,91,0.04,,---,0.32,128.00,VWS V14.01,2013-08-19 19:25:00,
2013-08-19 15:30:00,68.4,65.7,30.17,ESE,109,0.0,2.0,91,0.04,,---,0.32,139.00,VWS V14.01,2013-08-19 19:30:00,
2013-08-19 15:35:00,68.3,65.9,30.17,ESE,109,0.0,0.0,92,0.05,,---,0.33,141.00,VWS V14.01,2013-08-19 19:35:00,
2013-08-19 15:40:00,68.3,65.9,30.17,ESE,109,0.0,0.0,92,0.05,,---,0.33,139.00,VWS V14.01,2013-08-19 19:40:00,
2013-08-19 15:45:00,68.4,66.3,30.17,ESE,109,0.0,0.0,93,0.06,,---,0.34,120.00,VWS V14.01,2013-08-19 19:45:00,
2013-08-19 15:50:00,68.3,66.2,30.17,ESE,109,0.0,0.0,93,0.06,,---,0.34,141.00,VWS V14.01,2013-08-19 19:50:00,
2013-08-19 15:55:00,68.3,66.5,30.16,ESE,109,0.0,0.0,94,0.07,,---,0.35,167.00,VWS V14.01,2013-08-19 19:55:00,
2013-08-19 16:00:00,68.3,66.5,30.16,ESE,109,0.0,0.0,94,0.07,,---,0.35,311.00,VWS V14.01,2013-08-19 20:00:00,
2013-08-19 16:01:00,68.2,66.4,30.16,ESE,109,0.0,0.0,94,0.07,,---,0.35,316.00,VWS V14.01,2013-08-19 20:01:00,
2013-08-19 16:06:00,68.3,66.8,30.16,ESE,109,0.0,0.0,95,0.06,,---,0.35,287.00,VWS V14.01,2013-08-19 20:06:00,
2013-08-19 16:11:00,68.4,66.9,30.16,ESE,109,0.0,0.0,95,0.06,,---,0.35,239.00,VWS V14.01,2013-08-19 20:11:00,
2013-08-19 16:16:00,68.4,66.9,30.16,SE,136,0.0,2.0,95,0.06,,---,0.35,248.00,VWS V14.01,2013-08-19 20:16:00,
2013-08-19 16:21:00,68.5,67.0,30.15,ESE,121,0.0,2.0,95,0.06,,---,0.35,429.00,VWS V14.01,2013-08-19 20:21:00,
2013-08-19 16:26:00,68.7,67.2,30.15,ENE,65,0.0,3.0,95,0.06,,---,0.35,336.00,VWS V14.01,2013-08-19 20:26:00,
2013-08-19 16:30:00,68.7,66.9,30.15,East,80,0.0,4.0,94,0.06,,---,0.35,316.00,VWS V14.01,2013-08-19 20:30:00,
2013-08-19 16:31:00,68.6,66.8,30.15,East,80,0.0,4.0,94,0.06,,---,0.35,427.00,VWS V14.01,2013-08-19 20:31:00,
2013-08-19 16:36:00,68.8,67.3,30.15,East,80,0.0,1.0,95,0.02,,---,0.35,283.00,VWS V14.01,2013-08-19 20:36:00,
2013-08-19 16:41:00,68.9,67.1,30.15,South,186,0.0,1.0,94,0.02,,---,0.35,359.00,VWS V14.01,2013-08-19 20:41:00,
2013-08-19 16:46:00,68.9,67.1,30.15,SE,141,0.0,3.0,94,0.02,,---,0.35,424.00,VWS V14.01,2013-08-19 20:46:00,
2013-08-19 16:51:00,69.0,67.2,30.15,SW,225,0.0,3.0,94,0.02,,---,0.35,350.00,VWS V14.01,2013-08-19 20:51:00,
2013-08-19 16:56:00,69.0,66.9,30.15,East,88,0.0,3.0,93,0.02,,---,0.35,357.00,VWS V14.01,2013-08-19 20:56:00,
2013-08-19 17:00:00,69.0,66.6,30.15,SE,125,0.0,3.0,92,0.02,,---,0.35,227.00,VWS V14.01,2013-08-19 21:00:00,
2013-08-19 17:01:00,69.0,66.6,30.15,SSE,151,0.0,3.0,92,0.02,,---,0.35,234.00,VWS V14.01,2013-08-19 21:01:00,
2013-08-19 17:07:00,69.1,66.7,30.15,SE,124,2.0,2.0,92,0.00,,---,0.35,390.00,VWS V14.01,2013-08-19 21:07:00,
2013-08-19 17:12:00,69.2,66.8,30.14,ESE,118,0.0,2.0,92,0.00,,---,0.35,427.00,VWS V14.01,2013-08-19 21:12:00,
2013-08-19 17:17:00,69.3,66.9,30.14,ESE,118,0.0,2.0,92,0.00,,---,0.35,202.00,VWS V14.01,2013-08-19 21:17:00,
2013-08-19 17:22:00,69.4,67.0,30.14,ESE,118,0.0,2.0,92,0.00,,---,0.35,271.00,VWS V14.01,2013-08-19 21:22:00,
2013-08-19 17:27:00,69.5,67.1,30.14,ENE,57,0.0,2.0,92,0.00,,---,0.35,468.00,VWS V14.01,2013-08-19 21:27:00,
2013-08-19 17:30:00,69.7,67.0,30.14,SSW,200,0.0,2.0,91,0.00,,---,0.35,443.00,VWS V14.01,2013-08-19 21:30:00,
2013-08-19 17:32:00,69.6,67.2,30.14,ENE,57,0.0,2.0,92,0.00,,---,0.35,469.00,VWS V14.01,2013-08-19 21:32:00,
2013-08-19 17:37:00,70.0,67.3,30.14,SE,146,0.0,0.0,91,0.00,,---,0.35,318.00,VWS V14.01,2013-08-19 21:37:00,
2013-08-19 17:42:00,70.1,67.4,30.14,SE,126,0.0,2.0,91,0.00,,---,0.35,271.00,VWS V14.01,2013-08-19 21:42:00,
2013-08-19 17:47:00,70.1,67.4,30.14,SE,128,0.0,2.0,91,0.00,,---,0.35,197.00,VWS V14.01,2013-08-19 21:47:00,
2013-08-19 17:52:00,70.3,67.6,30.14,SE,128,0.0,2.0,91,0.00,,---,0.35,158.00,VWS V14.01,2013-08-19 21:52:00,
2013-08-19 17:57:00,70.4,67.3,30.14,SE,128,0.0,2.0,90,0.00,,---,0.35,125.00,VWS V14.01,2013-08-19 21:57:00,
2013-08-19 18:00:00,70.5,67.4,30.14,SSW,194,0.0,2.0,90,0.00,,---,0.35,139.00,VWS V14.01,2013-08-19 22:00:00,
2013-08-19 18:03:00,70.5,67.4,30.14,SSW,194,0.0,2.0,90,0.00,,---,0.35,141.00,VWS V14.01,2013-08-19 22:03:00,
2013-08-19 18:08:00,70.6,67.5,30.14,SE,138,0.0,0.0,90,0.00,,---,0.35,128.00,VWS V14.01,2013-08-19 22:08:00,
2013-08-19 18:13:00,70.6,67.2,30.14,SE,140,0.0,1.0,89,0.00,,---,0.35,114.00,VWS V14.01,2013-08-19 22:13:00,
2013-08-19 18:18:00,70.5,67.1,30.14,ENE,77,0.0,2.0,89,0.00,,---,0.35,105.00,VWS V14.01,2013-08-19 22:18:00,
2013-08-19 18:23:00,70.3,66.9,30.14,SW,234,0.0,3.0,89,0.00,,---,0.35,91.00,VWS V14.01,2013-08-19 22:23:00,
2013-08-19 18:28:00,70.2,66.8,30.14,West,259,0.0,3.0,89,0.00,,---,0.35,72.00,VWS V14.01,2013-08-19 22:28:00,
2013-08-19 18:30:00,70.1,66.7,30.14,West,261,0.0,3.0,89,0.00,,---,0.35,69.00,VWS V14.01,2013-08-19 22:30:00,
2013-08-19 18:33:00,70.1,66.7,30.14,West,261,0.0,3.0,89,0.00,,---,0.35,69.00,VWS V14.01,2013-08-19 22:33:00,
2013-08-19 18:38:00,70.0,66.9,30.14,West,261,0.0,1.0,90,0.00,,---,0.35,69.00,VWS V14.01,2013-08-19 22:38:00,
2013-08-19 18:43:00,69.9,66.8,30.14,West,260,0.0,1.0,90,0.00,,---,0.35,79.00,VWS V14.01,2013-08-19 22:43:00,
2013-08-19 18:48:00,69.8,66.7,30.14,SE,133,0.0,2.0,90,0.00,,---,0.35,86.00,VWS V14.01,2013-08-19 22:48:00,
2013-08-19 18:53:00,69.7,66.6,30.14,SE,124,0.0,3.0,90,0.00,,---,0.35,95.00,VWS V14.01,2013-08-19 22:53:00,
2013-08-19 18:59:00,69.6,66.5,30.13,NNE,24,0.0,3.0,90,0.00,,---,0.35,86.00,VWS V14.01,2013-08-19 22:59:00,
2013-08-19 19:00:00,69.5,66.4,30.14,NNE,25,0.0,3.0,90,0.00,,---,0.35,86.00,VWS V14.01,2013-08-19 23:00:00,
2013-08-19 19:04:00,69.5,66.4,30.13,NNE,25,0.0,0.0,90,0.00,,---,0.35,86.00,VWS V14.01,2013-08-19 23:04:00,
2013-08-19 19:09:00,69.4,66.3,30.13,ESE,116,0.0,1.0,90,0.00,,---,0.35,67.00,VWS V14.01,2013-08-19 23:09:00,
2013-08-19 19:14:00,69.3,66.6,30.13,East,98,0.0,3.0,91,0.00,,---,0.35,60.00,VWS V14.01,2013-08-19 23:14:00,
2013-08-19 19:19:00,69.2,66.5,30.14,ESE,115,0.0,3.0,91,0.00,,---,0.35,58.00,VWS V14.01,2013-08-19 23:19:00,
2013-08-19 19:24:00,69.0,66.3,30.14,NNE,29,0.0,3.0,91,0.00,,---,0.35,54.00,VWS V14.01,2013-08-19 23:24:00,
2013-08-19 19:29:00,68.8,66.1,30.14,ESE,110,0.0,3.0,91,0.00,,---,0.35,49.00,VWS V14.01,2013-08-19 23:29:00,
2013-08-19 19:30:00,68.7,66.0,30.14,East,98,0.0,3.0,91,0.00,,---,0.35,44.00,VWS V14.01,2013-08-19 23:30:00,
2013-08-19 19:34:00,68.7,66.0,30.14,East,98,0.0,0.0,91,0.00,,---,0.35,42.00,VWS V14.01,2013-08-19 23:34:00,
2013-08-19 19:39:00,68.6,65.9,30.14,SSE,149,0.0,2.0,91,0.00,,---,0.35,37.00,VWS V14.01,2013-08-19 23:39:00,
2013-08-19 19:44:00,68.5,66.1,30.14,SSE,149,0.0,2.0,92,0.00,,---,0.35,30.00,VWS V14.01,2013-08-19 23:44:00,
2013-08-19 19:49:00,68.3,65.6,30.14,ESE,115,0.0,2.0,91,0.00,,---,0.35,23.00,VWS V14.01,2013-08-19 23:49:00,
2013-08-19 19:54:00,68.2,65.8,30.14,ESE,115,0.0,2.0,92,0.00,,---,0.35,16.00,VWS V14.01,2013-08-19 23:54:00,
2013-08-19 19:59:00,68.1,65.7,30.15,ESE,115,0.0,2.0,92,0.00,,---,0.35,11.00,VWS V14.01,2013-08-19 23:59:00,
2013-08-19 20:00:00,67.9,65.5,30.15,ESE,115,0.0,2.0,92,0.00,,---,0.35,7.00,VWS V14.01,2013-08-20 00:00:00,
2013-08-19 20:05:00,67.9,65.5,30.15,ESE,115,0.0,0.0,92,0.00,,---,0.35,5.00,VWS V14.01,2013-08-20 00:05:00,
2013-08-19 20:10:00,67.7,65.3,30.15,ESE,115,0.0,1.0,92,0.00,,---,0.35,0.00,VWS V14.01,2013-08-20 00:10:00,
2013-08-19 20:15:00,67.6,65.2,30.15,NNE,30,0.0,1.0,92,0.00,,---,0.35,0.00,VWS V14.01,2013-08-20 00:15:00,
2013-08-19 20:20:00,67.4,65.3,30.15,NNE,30,0.0,1.0,93,0.00,,---,0.35,0.00,VWS V14.01,2013-08-20 00:20:00,
2013-08-19 20:25:00,67.3,65.2,30.15,NNE,30,0.0,1.0,93,0.00,,---,0.35,0.00,VWS V14.01,2013-08-20 00:25:00,
2013-08-19 20:30:00,67.1,65.0,30.15,NNE,30,0.0,1.0,93,0.00,,---,0.35,0.00,VWS V14.01,2013-08-20 00:30:00,
2013-08-19 20:35:00,67.0,64.9,30.15,NNE,30,0.0,0.0,93,0.00,,---,0.35,0.00,VWS V14.01,2013-08-20 00:35:00,
2013-08-19 20:40:00,66.8,64.7,30.15,NNE,30,0.0,0.0,93,0.00,,---,0.35,0.00,VWS V14.01,2013-08-20 00:40:00,
2013-08-19 20:45:00,66.7,64.9,30.15,NNE,30,0.0,1.0,94,0.00,,---,0.35,0.00,VWS V14.01,2013-08-20 00:45:00,
2013-08-19 20:50:00,66.6,64.8,30.15,ESE,105,0.0,2.0,94,0.00,,---,0.35,0.00,VWS V14.01,2013-08-20 00:50:00,
2013-08-19 20:55:00,66.4,64.6,30.15,ESE,105,0.0,2.0,94,0.00,,---,0.35,0.00,VWS V14.01,2013-08-20 00:55:00,
2013-08-19 21:00:00,66.3,64.5,30.15,ENE,69,0.0,2.0,94,0.00,,---,0.35,0.00,VWS V14.01,2013-08-20 01:00:00,
2013-08-19 21:05:00,66.2,64.4,30.15,ENE,69,0.0,0.0,94,0.00,,---,0.35,0.00,VWS V14.01,2013-08-20 01:05:00,
2013-08-19 21:10:00,66.1,64.6,30.15,ENE,69,0.0,0.0,95,0.00,,---,0.35,0.00,VWS V14.01,2013-08-20 01:10:00,
2013-08-19 21:16:00,66.0,64.5,30.16,SW,215,0.0,3.0,95,0.00,,---,0.35,0.00,VWS V14.01,2013-08-20 01:16:00,
2013-08-19 21:21:00,65.9,64.4,30.16,NNE,22,0.0,3.0,95,0.00,,---,0.35,0.00,VWS V14.01,2013-08-20 01:21:00,
2013-08-19 21:26:00,65.8,64.3,30.16,SE,134,0.0,3.0,95,0.00,,---,0.35,0.00,VWS V14.01,2013-08-20 01:26:00,
2013-08-19 21:30:00,65.7,64.2,30.17,ENE,72,0.0,3.0,95,0.00,,---,0.35,0.00,VWS V14.01,2013-08-20 01:30:00,
2013-08-19 21:31:00,65.8,64.3,30.17,ENE,72,0.0,3.0,95,0.00,,---,0.35,0.00,VWS V14.01,2013-08-20 01:31:00,
2013-08-19 21:36:00,65.7,64.2,30.17,ESE,103,0.0,0.0,95,0.00,,---,0.35,0.00,VWS V14.01,2013-08-20 01:36:00,
2013-08-19 21:41:00,65.6,64.1,30.17,North,5,0.0,1.0,95,0.00,,---,0.35,0.00,VWS V14.01,2013-08-20 01:41:00,
2013-08-19 21:46:00,65.6,64.4,30.17,East,81,0.0,1.0,96,0.00,,---,0.35,0.00,VWS V14.01,2013-08-20 01:46:00,
2013-08-19 21:51:00,65.5,64.0,30.17,ENE,77,0.0,2.0,95,0.00,,---,0.35,0.00,VWS V14.01,2013-08-20 01:51:00,
2013-08-19 21:56:00,65.4,63.9,30.17,ENE,77,0.0,2.0,95,0.00,,---,0.35,0.00,VWS V14.01,2013-08-20 01:56:00,
2013-08-19 22:00:00,65.3,64.1,30.17,ENE,77,0.0,2.0,96,0.00,,---,0.35,0.00,VWS V14.01,2013-08-20 02:00:00,
2013-08-19 22:01:00,65.4,63.9,30.17,ENE,77,0.0,2.0,95,0.00,,---,0.35,0.00,VWS V14.01,2013-08-20 02:01:00,
2013-08-19 22:06:00,65.3,64.1,30.17,ENE,77,0.0,0.0,96,0.00,,---,0.35,0.00,VWS V14.01,2013-08-20 02:06:00,
2013-08-19 22:11:00,65.3,64.1,30.17,ENE,77,0.0,0.0,96,0.00,,---,0.35,0.00,VWS V14.01,2013-08-20 02:11:00,
2013-08-19 22:16:00,65.3,64.1,30.17,WSW,237,0.0,1.0,96,0.00,,---,0.35,0.00,VWS V14.01,2013-08-20 02:16:00,
2013-08-19 22:22:00,65.3,64.1,30.17,WSW,237,0.0,1.0,96,0.00,,---,0.35,0.00,VWS V14.01,2013-08-20 02:22:00,
2013-08-19 22:27:00,65.3,64.1,30.17,WSW,237,0.0,1.0,96,0.00,,---,0.35,0.00,VWS V14.01,2013-08-20 02:27:00,
2013-08-19 22:30:00,65.4,64.2,30.17,WSW,237,0.0,1.0,96,0.00,,---,0.35,0.00,VWS V14.01,2013-08-20 02:30:00,
2013-08-19 22:32:00,65.3,64.1,30.17,WSW,237,0.0,1.0,96,0.00,,---,0.35,0.00,VWS V14.01,2013-08-20 02:32:00,
2013-08-19 22:37:00,65.4,64.2,30.17,WSW,237,0.0,0.0,96,0.00,,---,0.35,0.00,VWS V14.01,2013-08-20 02:37:00,
2013-08-19 22:42:00,65.3,64.1,30.17,WSW,237,0.0,0.0,96,0.00,,---,0.35,0.00,VWS V14.01,2013-08-20 02:42:00,
2013-08-19 22:47:00,65.3,64.1,30.17,WSW,237,0.0,0.0,96,0.00,,---,0.35,0.00,VWS V14.01,2013-08-20 02:47:00,
2013-08-19 22:52:00,65.3,64.1,30.18,WSW,237,0.0,0.0,96,0.00,,---,0.35,0.00,VWS V14.01,2013-08-20 02:52:00,
2013-08-19 22:57:00,65.3,64.1,30.17,WSW,237,0.0,0.0,96,0.00,,---,0.35,0.00,VWS V14.01,2013-08-20 02:57:00,
2013-08-19 23:00:00,65.2,64.0,30.18,WSW,237,0.0,0.0,96,0.00,,---,0.35,0.00,VWS V14.01,2013-08-20 03:00:00,
2013-08-19 23:02:00,65.2,64.0,30.18,WSW,237,0.0,0.0,96,0.00,,---,0.35,0.00,VWS V14.01,2013-08-20 03:02:00,
2013-08-19 23:07:00,65.2,64.0,30.18,WSW,237,0.0,0.0,96,0.00,,---,0.35,0.00,VWS V14.01,2013-08-20 03:07:00,
2013-08-19 23:12:00,65.2,64.0,30.18,SW,236,0.0,0.0,96,0.00,,---,0.35,0.00,VWS V14.01,2013-08-20 03:12:00,
2013-08-19 23:17:00,65.1,63.9,30.18,SW,236,0.0,0.0,96,0.00,,---,0.35,0.00,VWS V14.01,2013-08-20 03:17:00,
2013-08-19 23:22:00,65.1,63.9,30.18,SW,236,0.0,0.0,96,0.00,,---,0.35,0.00,VWS V14.01,2013-08-20 03:22:00,
2013-08-19 23:27:00,65.1,63.9,30.19,SW,236,0.0,0.0,96,0.00,,---,0.35,0.00,VWS V14.01,2013-08-20 03:27:00,
2013-08-19 23:30:00,65.0,64.1,30.18,SW,236,0.0,0.0,97,0.00,,---,0.35,0.00,VWS V14.01,2013-08-20 03:30:00,
2013-08-19 23:33:00,65.0,63.8,30.18,SW,236,0.0,0.0,96,0.00,,---,0.35,0.00,VWS V14.01,2013-08-20 03:33:00,
2013-08-19 23:38:00,65.0,63.8,30.18,SW,236,0.0,0.0,96,0.00,,---,0.35,0.00,VWS V14.01,2013-08-20 03:38:00,
2013-08-19 23:43:00,65.0,63.8,30.18,SW,236,0.0,0.0,96,0.00,,---,0.35,0.00,VWS V14.01,2013-08-20 03:43:00,
2013-08-19 23:48:00,64.9,63.7,30.18,SW,231,0.0,0.0,96,0.00,,---,0.35,0.00,VWS V14.01,2013-08-20 03:48:00,
2013-08-19 23:53:00,64.9,64.0,30.18,SSW,194,0.0,0.0,97,0.00,,---,0.35,0.00,VWS V14.01,2013-08-20 03:53:00,
2013-08-19 23:58:00,64.9,64.0,30.18,South,180,0.0,0.0,97,0.00,,---,0.35,0.00,VWS V14.01,2013-08-20 03:58:00,